EW9827 Weather Reports


time (UTC)temp
F
wind
direction
speed
knots
gust
knots
rain 1hr
in
rain 24hr
in
rain mn
in
humidity
%
barometer
mb
20260505024554 58 94 0.0 8.7 0.00 0.00 0.00 68 1008.1
20260505023051 59 94 0.0 7.0 0.00 0.00 0.00 66 1008.2
20260505021550 59 94 0.0 3.5 0.00 0.00 0.00 65 1008.2
20260505020020 60 94 0.0 10.4 0.00 0.00 0.00 63 1008.2
20260505014516 60 94 1.7 4.3 0.00 0.00 0.00 61 1008.2
20260505013043 60 94 0.0 2.6 0.00 0.00 0.00 60 1008.1
20260505011545 61 94 0.9 7.0 0.00 0.00 0.00 58 1007.9
20260505010043 61 94 1.7 7.0 0.00 0.00 0.00 57 1007.7
20260505004534 62 94 0.0 7.0 0.00 0.00 0.00 56 1007.6
20260505003031 62 94 0.9 6.1 0.00 0.00 0.00 54 1007.5
20260505001531 63 94 0.9 6.1 0.00 0.00 0.00 53 1007.5
20260505000040 63 94 1.7 7.0 0.00 0.00 0.00 53 1007.6
20260504234526 63 94 1.7 7.0 0.00 0.00 0.00 53 1007.4
20260504233019 65 94 0.9 13.9 0.00 0.00 0.00 51 1007.4
20260504231518 66 94 1.7 10.4 0.00 0.00 0.00 49 1007.5
20260504230046 67 94 4.3 18.2 0.00 0.00 0.00 47 1007.3
20260504224547 66 94 0.9 13.9 0.00 0.00 0.00 48 1007.3
20260504223042 66 94 1.7 7.8 0.00 0.00 0.00 48 1007.3
20260504221542 66 94 1.7 13.9 0.00 0.00 0.00 46 1007.5
20260504220047 65 94 2.6 11.3 0.00 0.00 0.00 46 1007.4
20260504214538 66 94 2.6 9.6 0.00 0.00 0.00 46 1007.3
20260504213045 67 94 2.6 11.3 0.00 0.00 0.00 44 1007.5
20260504211538 67 94 3.5 12.2 0.00 0.00 0.00 44 1007.6
20260504210025 67 93 2.6 10.4 0.00 0.00 0.00 42 1007.3
20260504204535 68 94 1.7 12.2 0.00 0.00 0.00 42 1007.4
20260504203051 68 93 4.3 12.2 0.00 0.00 0.00 40 1007.6
20260504201548 69 94 0.9 7.8 0.00 0.00 0.00 41 1007.6
20260504200016 69 93 1.7 14.8 0.00 0.00 0.00 37 1008.0
20260504194514 68 94 1.7 14.8 0.00 0.00 0.00 40 1008.4
20260504193008 68 93 2.6 9.6 0.00 0.00 0.00 35 1008.5
20260504191505 68 93 2.6 13.0 0.00 0.00 0.00 38 1008.5
20260504190002 68 94 2.6 8.7 0.00 0.00 0.00 40 1008.8
20260504184559 67 93 1.7 13.0 0.00 0.00 0.00 40 1009.2
20260504183103 67 94 3.5 15.6 0.00 0.00 0.00 39 1009.3
20260504181524 66 93 3.5 13.9 0.00 0.00 0.00 41 1009.4
20260504180022 66 93 4.3 11.3 0.00 0.00 0.00 43 1009.4
20260504174520 66 93 1.7 11.3 0.00 0.00 0.00 43 1009.8
20260504173016 65 93 4.3 13.9 0.00 0.00 0.00 43 1009.8
20260504171513 65 93 3.5 11.3 0.00 0.00 0.00 47 1010.2
20260504160104 62 93 3.5 11.3 0.00 0.00 0.00 50 1011.0
20260504081522 39 93 0.0 0.0 0.00 0.00 0.00 72 1013.6
20260504050024 44 93 0.9 7.0 0.00 0.00 0.00 60 1014.7
20260504044533 44 93 0.0 6.1 0.00 0.00 0.00 60 1014.8
20260504043028 44 93 0.0 6.1 0.00 0.00 0.00 59 1014.8
20260504041518 44 93 0.9 9.6 0.00 0.00 0.00 60 1014.8
20260504041516 44 93 0.9 9.6 0.00 0.00 0.00 59 1014.8
20260504040020 45 93 0.9 5.2 0.00 0.00 0.00 58 1014.9
20260504034514 45 93 0.9 4.3 0.00 0.00 0.00 58 1014.9
20260504033012 44 93 0.9 7.0 0.00 0.00 0.00 59 1015.0
20260504031514 45 93 0.9 7.0 0.00 0.00 0.00 58 1015.0
20260504030009 45 93 1.7 5.2 0.00 0.00 0.00 58 1014.9